Location: Auckland
(36.8670°S, 174.7670°E)
Time: 15:04:57
(UTC+12:00)

Tiros 1 despin weight - Pass Details

Date: 21 July 2019
Orbit: 594 x 642 km, 48.2° (Epoch: 20 August)

Event Time Altitude Azimuth Distance (km) Brightness Sun altitude
Rises 05:22:20 0° 233° (SW) 2,877 - -24.9°
Reaches altitude 10° 05:24:46 10° 224° (SW) 1,977 - -24.4°
Exits shadow 05:28:17 34° 177° (S) 1,019 ? -23.7°
Maximum altitude 05:28:59 36° 156° (SSE) 978 ? -23.6°
Drops below altitude 10° 05:33:14 10° 88° (E) 1,994 ? -22.7°
Sets 05:35:43 0° 79° (E) 2,905 ? -22.2°
